"Pseudo-MPEC" for v17oct4

Created 2024 Dec 4 23:31:45 UT using Find_Orb

Click here for an explanation of pseudo-MPECs

 
 Astrometry: 
     v17oct4*2C2024 10 17.99617 16 33 34.481-19 40 59.12   ~AIFV 20.2 rVNEOCPW84
     v17oct4 2C2024 10 17.99848 16 33 35.190-19 40 57.53   ~AIFV 20.3 rVNEOCPW84

Station data:
(W84) Cerro Tololo-DECam  (S30.169594 W70.806420)  Chile.  Observer S. S.
   Sheppard. Measurer S. Deen. 4.0-m reflector + CCD.

Orbital elements:  v17oct4
   Perihelion 2024 Dec 9.47049 +/- 42.9 TT = 11:17:30 (JD 2460653.97049)
Epoch 2024 Oct 18.0 TT = JDT 2460601.5   Earth MOID: 0.2923   Ve: 0.0234
M 193.76726040 +/- 110              (J2000 ecliptic)             AutoNEOCP
n   3.16811863 +/- 1.68             Peri.  180.64735 +/- 80
a   0.45912938 +/- 0.163            Node   352.28511 +/- 31
e   0.5536912 +/- 0.26              Incl.  158.99898 +/- 60
P   0.311/113.630d         H 18.69  G  0.15   U 13.1  SR
q 0.20491344 +/- 0.303    Q 0.71334533 +/- 7.59
From 2 observations 2024 Oct. 17 (3.3 min); mean residual 0".00
Residuals in arcseconds: 
241017 W84  .00   .00     241017 W84  .00   .00     

Ephemerides (geocentric):
Date (UTC) HH   RA             Dec           delta  r     elong  mag " sig PA
---- --------  ------------   ------------  ------ ------ -----  --- --------
2024 12 05 00  16 24 55.238   -18 19 11.20  1.1915 .23916   6.4 17.2  39d 109
2024 12 05 01  16 24 47.183   -18 20 13.80  1.1903 .23860   6.5 17.2  39d 109
2024 12 05 02  16 24 39.150   -18 21 16.95  1.1891 .23804   6.5 17.2  39d 109
2024 12 05 03  16 24 31.139   -18 22 20.67  1.1879 .23748   6.6 17.2  39d 109
2024 12 05 04  16 24 23.151   -18 23 24.95  1.1867 .23693   6.6 17.2  39d 109
2024 12 05 05  16 24 15.187   -18 24 29.81  1.1855 .23638   6.7 17.2  39d 109
2024 12 05 06  16 24 07.247   -18 25 35.25  1.1843 .23583   6.7 17.2  39d 109
2024 12 05 07  16 23 59.333   -18 26 41.28  1.1830 .23529   6.8 17.2  39d 109
2024 12 05 08  16 23 51.445   -18 27 47.89  1.1818 .23475   6.8 17.2  39d 109
2024 12 05 09  16 23 43.584   -18 28 55.09  1.1806 .23421   6.9 17.2  39d 109
2024 12 05 10  16 23 35.752   -18 30 02.90  1.1793 .23368   6.9 17.2  39d 109
2024 12 05 11  16 23 27.948   -18 31 11.30  1.1780 .23315   7.0 17.2  39d 109
2024 12 05 12  16 23 20.174   -18 32 20.32  1.1768 .23262   7.0 17.2  39d 109
2024 12 05 13  16 23 12.431   -18 33 29.95  1.1755 .23210   7.1 17.2  39d 109
2024 12 05 14  16 23 04.720   -18 34 40.19  1.1742 .23158   7.1 17.2  39d 109
2024 12 05 15  16 22 57.042   -18 35 51.07  1.1729 .23106   7.2 17.2  39d 109
2024 12 05 16  16 22 49.397   -18 37 02.57  1.1716 .23055   7.3 17.2  39d 109
2024 12 05 17  16 22 41.787   -18 38 14.70  1.1703 .23004   7.3 17.2  39d 109
2024 12 05 18  16 22 34.213   -18 39 27.47  1.1690 .22954   7.4 17.2  39d 109
2024 12 05 19  16 22 26.675   -18 40 40.89  1.1676 .22904   7.4 17.2  39d 109
2024 12 05 20  16 22 19.175   -18 41 54.96  1.1663 .22854   7.5 17.2  39d 109
2024 12 05 21  16 22 11.714   -18 43 09.68  1.1649 .22805   7.5 17.2  39d 109
2024 12 05 22  16 22 04.293   -18 44 25.06  1.1636 .22756   7.6 17.2  39d 109
2024 12 05 23  16 21 56.912   -18 45 41.10  1.1622 .22707   7.6 17.2  39d 109
2024 12 06 00  16 21 49.574   -18 46 57.82  1.1609 .22659   7.7 17.2  39d 109
2024 12 06 01  16 21 42.278   -18 48 15.21  1.1595 .22611   7.7 17.3  39d 109
2024 12 06 02  16 21 35.027   -18 49 33.28  1.1581 .22564   7.8 17.3  39d 109
2024 12 06 03  16 21 27.821   -18 50 52.03  1.1567 .22517   7.8 17.3  39d 109
2024 12 06 04  16 21 20.661   -18 52 11.48  1.1553 .22470   7.9 17.3  39d 109
2024 12 06 05  16 21 13.549   -18 53 31.62  1.1539 .22424   8.0 17.3  39d 109
2024 12 06 06  16 21 06.486   -18 54 52.46  1.1525 .22379   8.0 17.3  39d 109
2024 12 06 07  16 20 59.473   -18 56 14.01  1.1510 .22333   8.1 17.3  39d 109
2024 12 06 08  16 20 52.511   -18 57 36.28  1.1496 .22289   8.1 17.3  39d 109
2024 12 06 09  16 20 45.601   -18 58 59.25  1.1481 .22244   8.2 17.3  39d 109
2024 12 06 10  16 20 38.745   -19 00 22.96  1.1467 .22200   8.2 17.3  39d 109
2024 12 06 11  16 20 31.944   -19 01 47.38  1.1452 .22157   8.3 17.3  39d 109
2024 12 06 12  16 20 25.198   -19 03 12.54  1.1438 .22114   8.3 17.3  39d 109
2024 12 06 13  16 20 18.510   -19 04 38.44  1.1423 .22071   8.4 17.3  39d 109
2024 12 06 14  16 20 11.881   -19 06 05.08  1.1408 .22029   8.4 17.3  39d 109
2024 12 06 15  16 20 05.311   -19 07 32.47  1.1393 .21988   8.5 17.3  39d 109
2024 12 06 16  16 19 58.803   -19 09 00.61  1.1378 .21947   8.5 17.3  39d 109
2024 12 06 17  16 19 52.357   -19 10 29.51  1.1363 .21906   8.6 17.3  39d 109
2024 12 06 18  16 19 45.976   -19 11 59.18  1.1348 .21866   8.7 17.3  39d 109
2024 12 06 19  16 19 39.659   -19 13 29.61  1.1333 .21826   8.7 17.3  39d 109
2024 12 06 20  16 19 33.409   -19 15 00.81  1.1317 .21787   8.8 17.3  39d 109
2024 12 06 21  16 19 27.227   -19 16 32.80  1.1302 .21748   8.8 17.3  39d 109
2024 12 06 22  16 19 21.114   -19 18 05.57  1.1286 .21710   8.9 17.3  39d 109
2024 12 06 23  16 19 15.072   -19 19 39.12  1.1271 .21673   8.9 17.3  39d 109